User: anonymous   Login
Location: Stoke Bliss
(52.2667°N, 2.5167°W)
Time: 10:42:06
(UTC+00:00)
Language:

COSMOS 2251 DEB - Orbit

View from above orbital plane
View from above orbital plane
View from above satellite
View from above satellite

Ground track
Ground track

The orbit data is extracted from the following two-line orbital elements,

1 35284U 93036AJN 21269.60533421  .00000103  00000-0  44526-4 0  9996
2 35284  74.0504 210.1733 0018062 308.4024 226.9109 14.36059267651755
Epoch (UTC): 26 September 2021 14:31:40
Eccentricity: 0.0018062
inclination: 74.0504°
perigee height: 758 km
apogee height: 784 km
right ascension of ascending node: 210.1733°
argument of perigee: 308.4024°
revolutions per day: 14.36059267
mean anomaly at epoch: 226.9109°
orbit number at epoch: 65175

The dashed part of the orbit path shows where the satellite is in the earth's shadow,  

DLR